NOAA 17 DEB, 48706

Orbit data source: Space-Track

NOAA 17 DEB, 48706 is space debris in SSO originally from a launch on Mon, 24 Jun 2002 UTC launched from the Air Force Western Test Range (AFWTR). Debris objects in space refer to the collection of defunct objects orbiting the Earth. Examples of debris include non-operational satellites, rocket bodies, and fragments generated from explosions, collisions, or faulty payload assembly.

Loading next visibility...
Identifier
48706, 2002-032AP
Orbit
SSO
Country
Flag of USUS
Related business
Manufacturer
Unknown
Mission
Spacecraft
Bus & Motor
Unknown
Mass
Unknown
Launch date (UTC)
2002-06-24 (24 years ago)
Launch vehicle
Unknown
Launch site
Air Force Western Test Range (AFWTR)
Object type
Payload
Rocket body
Debris
Shape & HBR
Unknown shape, 0.1 m
Radar Cross Section
Medium (>0.1 m² and <1 m²)

Expand to show TLE details & history
Last TLE update: 3 days ago

TLE from 3 days ago
0 NOAA 17 DEB
1 48706U 02032AP  26170.59388586  .00004564  00000-0  18173-2 0  9991
2 48706  98.9291 124.5228 0098150 133.0332 227.9122 14.26489693267560
Epoch: 2026-06-19T14:15Z
TLE epoch observation values (Epoch: 2026-06-19T14:15:11.738Z)
Latitude
0.00007°
Longitude
2.90325°
Altitude
854.038 km
Speed
7.401 km/s
True Right ascension
08h 18m 05s
True Declination
0° 00' 00"
Sunlit
Object was in daylight at epoch
Visualization orbit readout
Latitude
Unknown
Longitude
Unknown
Altitude
Unknown
Speed
Unknown
Apparent Right ascension
Unknown
Apparent Declination
Unknown
Sunlit
N/A
Visualization observer readout
Local Sidereal Time
21:38:43
Azimuth
Unknown
Elevation
Unknown
Doppler factor
Unknown
Orbital elements
Apogee altitude
871.108 km
Perigee altitude
730.189 km
Semi-major axis
7,178.786 km
Eccentricity
0.00982
Inclination
98.9291°
RAAN
124.5228°
Arg. of periapsis
133.0332°
True anomaly
227.08437°
Mean anomaly
227.9122°
Eccentric anomaly
227.4976°
Mean motion
3.56834 °/min
Orbital period
100.89 mins
BSTAR
0.0018173
Loading maneuver chart data...
Computing Atmospheric mass density...

Documentation

Showing up to 5 results
|